[TLELIST] Archives

 

[TLELIST] Current TLEs

November 21st 2023 PDT

HST 1 20580U 90037B 23325.15375147 .00004384 00000-0 21938-3 0 9997 2 20580 28.4700 302.4118 0002456 276.7214 170.6752 15.14888597645530 ISS (ZARYA) 1 25544U 98067A 23325.21736263 .00026225 00000-0 47429-3 0 9991 2 25544 51.6423 270.7612 0000973 310.2609 190.7080 15.49496228426140 CXO 1 25867U 99040B 23323.96475560 .00000830 00000-0 00000-0 0 9996 2 25867 37.6703 177.0577 9029864 278.5648 0.1916 0.37811884 13762 ...Continue Reading

[TLELIST] Current TLEs

November 20th 2023 PDT

HST 1 20580U 90037B 23323.71941375 .00004441 00000-0 22245-3 0 9995 2 20580 28.4702 311.9792 0002475 259.7773 269.7686 15.14877026645055 ISS (ZARYA) 1 25544U 98067A 23324.37934042 .00011442 00000-0 21212-3 0 9999 2 25544 51.6431 274.9053 0000963 328.9691 174.3348 15.49459132426014 CXO 1 25867U 99040B 23323.96475560 .00000830 00000-0 00000-0 0 9996 2 25867 37.6703 177.0577 9029864 278.5648 0.1916 0.37811884 13762 ...Continue Reading

[TLELIST] Current TLEs

November 20th 2023 PDT

HST 1 20580U 90037B 23323.71941375 .00004441 00000-0 22245-3 0 9995 2 20580 28.4702 311.9792 0002475 259.7773 269.7686 15.14877026645055 ISS (ZARYA) 1 25544U 98067A 23324.37934042 .00011442 00000-0 21212-3 0 9999 2 25544 51.6431 274.9053 0000963 328.9691 174.3348 15.49459132426014 CXO 1 25867U 99040B 23323.96475560 .00000830 00000-0 00000-0 0 9996 2 25867 37.6703 177.0577 9029864 278.5648 0.1916 0.37811884 13762 ...Continue Reading

[TLELIST] Current TLEs

November 19th 2023 PDT

HST 1 20580U 90037B 23322.73090137 .00004263 00000-0 21320-3 0 9992 2 20580 28.4704 318.5727 0002497 248.2240 279.6926 15.14868931644909 ISS (ZARYA) 1 25544U 98067A 23323.41207948 .00052143 00000-0 93316-3 0 9998 2 25544 51.6434 279.6956 0001119 330.7912 173.5659 15.49460790425862 CXO 1 25867U 99040B 23323.96475560 .00000830 00000-0 00000-0 0 9996 2 25867 37.6703 177.0577 9029864 278.5648 0.1916 0.37811884 13762 ...Continue Reading

[TLELIST] Current TLEs

November 19th 2023 PDT

HST 1 20580U 90037B 23322.73090137 .00004263 00000-0 21320-3 0 9992 2 20580 28.4704 318.5727 0002497 248.2240 279.6926 15.14868931644909 ISS (ZARYA) 1 25544U 98067A 23323.41207948 .00052143 00000-0 93316-3 0 9998 2 25544 51.6434 279.6956 0001119 330.7912 173.5659 15.49460790425862 CXO 1 25867U 99040B 23323.96475560 .00000830 00000-0 00000-0 0 9996 2 25867 37.6703 177.0577 9029864 278.5648 0.1916 0.37811884 13762 ...Continue Reading

[TLELIST] Current TLEs

November 18th 2023 PDT

HST 1 20580U 90037B 23321.74265420 .00004219 00000-0 21095-3 0 9991 2 20580 28.4705 325.1644 0002529 236.8525 290.9112 15.14860849644753 ISS (ZARYA) 1 25544U 98067A 23322.38088115 .00012236 00000-0 22660-3 0 9999 2 25544 51.6445 284.8002 0000866 310.7864 197.8234 15.49414500425705 CXO 1 25867U 99040B 23323.96475560 .00000830 00000-0 00000-0 0 9996 2 25867 37.6703 177.0577 9029864 278.5648 0.1916 0.37811884 13762 ...Continue Reading

[TLELIST] Current TLEs

November 18th 2023 PDT

HST 1 20580U 90037B 23321.74265420 .00004219 00000-0 21095-3 0 9991 2 20580 28.4705 325.1644 0002529 236.8525 290.9112 15.14860849644753 ISS (ZARYA) 1 25544U 98067A 23322.38088115 .00012236 00000-0 22660-3 0 9999 2 25544 51.6445 284.8002 0000866 310.7864 197.8234 15.49414500425705 CXO 1 25867U 99040B 23323.96475560 .00000830 00000-0 00000-0 0 9996 2 25867 37.6703 177.0577 9029864 278.5648 0.1916 0.37811884 13762 ...Continue Reading

[TLELIST] Current TLEs

November 17th 2023 PDT

HST 1 20580U 90037B 23321.19876109 .00004690 00000-0 23563-3 0 9997 2 20580 28.4705 328.7921 0002563 230.2581 205.4827 15.14857409644930 ISS (ZARYA) 1 25544U 98067A 23321.41134024 .00012713 00000-0 23531-3 0 9991 2 25544 51.6431 289.5970 0000839 305.0931 191.9975 15.49391010425558 CXO 1 25867U 99040B 23323.96475560 .00000830 00000-0 00000+0 0 9995 2 25867 37.6703 177.0577 9029864 278.5648 0.1916 0.37811884 24922 ...Continue Reading

[TLELIST] Current TLEs

November 16th 2023 PDT

HST 1 20580U 90037B 23319.76625274 .00005031 00000-0 25354-3 0 9992 2 20580 28.4706 338.3468 0002625 213.9028 314.1468 15.14844800644454 ISS (ZARYA) 1 25544U 98067A 23320.50172660 .00012302 00000-0 22817-3 0 9998 2 25544 51.6430 294.0998 0000896 297.4748 162.6536 15.49365989425410 CXO 1 25867U 99040B 23321.32067009 .00000889 00000-0 00000-0 0 9993 2 25867 37.6436 177.3444 9030576 278.3451 0.1354 0.37813561 13763 ...Continue Reading

[TLELIST] Current TLEs

November 15th 2023 PDT

HST 1 20580U 90037B 23318.77758622 .00005102 00000-0 25732-3 0 9995 2 20580 28.4707 344.9409 0002680 202.9341 322.7593 15.14835091644300 ISS (ZARYA) 1 25544U 98067A 23319.34820770 .00026054 00000-0 47374-3 0 9994 2 25544 51.6430 299.8121 0001349 311.1125 190.8217 15.49345539425236 CXO 1 25867U 99040B 23321.32067009 .00000889 00000-0 00000+0 0 9992 2 25867 37.6436 177.3444 9030576 278.3451 0.1354 0.37813561 24912 ...Continue Reading
  • This mailing list is a public mailing list - anyone may join or leave, at any time.
  • This mailing list is announce-only.

International Space Station (ISS) / Hubble Space Telescope (HST) / Chandra X-Ray Observatory Orbital Data via EMAIL

Privacy Policy:

Private list